| time (UTC) | temp C | wind direction | speed KPH | gust KPH | rain 1hr cm | rain 24hr cm | rain mn cm | humidity % | barometer mb |
| 20260509064557 | 6 | 0 | 0.0 | 4.8 | 0.00 | 0.00 | 0.00 | 45 | 1001.4 |
| 20260509063055 | 6 | 0 | 0.0 | 1.6 | 0.00 | 0.00 | 0.00 | 46 | 1001.3 |
| 20260509061552 | 6 | 0 | 0.0 | 0.0 | 0.00 | 0.00 | 0.00 | 45 | 1001.5 |
| 20260509060056 | 6 | 0 | 0.0 | 6.4 | 0.00 | 0.00 | 0.00 | 45 | 1001.5 |
| 20260509054553 | 7 | 14 | 1.6 | 8.0 | 0.00 | 0.00 | 0.00 | 44 | 1001.5 |
| 20260509053052 | 6 | 36 | 0.0 | 4.8 | 0.00 | 0.00 | 0.00 | 46 | 1001.7 |
| 20260509051558 | 7 | 0 | 0.0 | 9.7 | 0.00 | 0.00 | 0.00 | 47 | 1001.7 |
| 20260509050054 | 7 | 19 | 0.0 | 4.8 | 0.00 | 0.00 | 0.00 | 47 | 1001.6 |
| 20260509044551 | 6 | 14 | 3.2 | 6.4 | 0.00 | 0.00 | 0.00 | 47 | 1001.5 |
| 20260509043055 | 6 | 22 | 0.0 | 6.4 | 0.00 | 0.00 | 0.00 | 50 | 1001.5 |
| 20260509041554 | 5 | 0 | 0.0 | 3.2 | 0.00 | 0.00 | 0.00 | 54 | 1001.5 |
| 20260509040053 | 5 | 0 | 0.0 | 0.0 | 0.00 | 0.00 | 0.00 | 57 | 1001.3 |
| 20260509034551 | 5 | 0 | 0.0 | 0.0 | 0.00 | 0.00 | 0.00 | 53 | 1001.3 |
| 20260509033100 | 5 | 0 | 0.0 | 0.0 | 0.00 | 0.00 | 0.00 | 52 | 1001.2 |
| 20260509031552 | 6 | 0 | 0.0 | 0.0 | 0.00 | 0.00 | 0.00 | 51 | 1001.4 |
| 20260509030054 | 7 | 0 | 0.0 | 0.0 | 0.00 | 0.00 | 0.00 | 44 | 1001.2 |
| 20260509024548 | 8 | 0 | 0.0 | 0.0 | 0.00 | 0.00 | 0.00 | 43 | 1001.4 |
| 20260509023050 | 9 | 0 | 0.0 | 1.6 | 0.00 | 0.00 | 0.00 | 41 | 1001.3 |
| 20260509021553 | 10 | 0 | 1.6 | 6.4 | 0.00 | 0.00 | 0.00 | 40 | 1001.4 |
| 20260509020052 | 10 | 360 | 1.6 | 12.9 | 0.00 | 0.00 | 0.00 | 40 | 1001.5 |
| 20260509014549 | 11 | 285 | 0.0 | 12.9 | 0.00 | 0.00 | 0.00 | 39 | 1001.2 |
| 20260509013055 | 11 | 0 | 3.2 | 17.7 | 0.00 | 0.00 | 0.00 | 42 | 1001.1 |
| 20260509011548 | 12 | 309 | 4.8 | 17.7 | 0.00 | 0.00 | 0.00 | 40 | 1000.9 |
| 20260509010052 | 12 | 302 | 4.8 | 24.1 | 0.00 | 0.00 | 0.00 | 40 | 1000.8 |
| 20260509004550 | 13 | 289 | 4.8 | 19.3 | 0.00 | 0.00 | 0.00 | 42 | 1000.3 |
| 20260509003052 | 13 | 0 | 1.6 | 9.7 | 0.00 | 0.00 | 0.00 | 40 | 1000.2 |
| 20260509001550 | 13 | 84 | 1.6 | 12.9 | 0.00 | 0.00 | 0.00 | 39 | 999.9 |
| 20260509000050 | 14 | 328 | 1.6 | 11.3 | 0.00 | 0.00 | 0.00 | 37 | 1000.2 |
| 20260508234552 | 14 | 275 | 4.8 | 22.5 | 0.00 | 0.00 | 0.00 | 36 | 1000.2 |
| 20260508233114 | 15 | 285 | 3.2 | 11.3 | 0.00 | 0.00 | 0.00 | 33 | 1000.3 |
| 20260508231552 | 14 | 0 | 0.0 | 17.7 | 0.00 | 0.00 | 0.00 | 35 | 1000.5 |
| 20260508230056 | 14 | 35 | 1.6 | 9.7 | 0.00 | 0.00 | 0.00 | 35 | 1000.8 |
| 20260508224605 | 14 | 0 | 3.2 | 11.3 | 0.00 | 0.00 | 0.00 | 34 | 1000.7 |
| 20260508223050 | 14 | 296 | 3.2 | 14.5 | 0.00 | 0.00 | 0.00 | 34 | 1000.9 |
| 20260508221549 | 14 | 309 | 0.0 | 9.7 | 0.00 | 0.00 | 0.00 | 34 | 1000.8 |
| 20260508220050 | 14 | 253 | 4.8 | 14.5 | 0.00 | 0.00 | 0.00 | 35 | 1001.1 |
| 20260508214551 | 14 | 229 | 0.0 | 9.7 | 0.00 | 0.00 | 0.00 | 36 | 1001.1 |
| 20260508213054 | 14 | 235 | 6.4 | 16.1 | 0.00 | 0.00 | 0.00 | 34 | 1001.3 |
| 20260508211551 | 14 | 234 | 4.8 | 29.0 | 0.00 | 0.00 | 0.00 | 35 | 1001.4 |
| 20260508210055 | 14 | 237 | 8.0 | 17.7 | 0.00 | 0.00 | 0.00 | 32 | 1001.2 |
| 20260508204553 | 14 | 247 | 3.2 | 19.3 | 0.00 | 0.00 | 0.00 | 34 | 1001.5 |
| 20260508203058 | 15 | 256 | 4.8 | 30.6 | 0.00 | 0.00 | 0.00 | 33 | 1001.7 |
| 20260508201552 | 14 | 249 | 6.4 | 20.9 | 0.00 | 0.00 | 0.00 | 33 | 1001.7 |
| 20260508200105 | 14 | 238 | 6.4 | 19.3 | 0.00 | 0.00 | 0.00 | 35 | 1001.9 |
| 20260508194552 | 13 | 296 | 8.0 | 22.5 | 0.00 | 0.00 | 0.00 | 35 | 1002.2 |
| 20260508193058 | 13 | 268 | 4.8 | 24.1 | 0.00 | 0.00 | 0.00 | 34 | 1002.3 |
| 20260508191555 | 13 | 22 | 6.4 | 24.1 | 0.00 | 0.00 | 0.00 | 33 | 1002.4 |
| 20260508190053 | 13 | 221 | 6.4 | 20.9 | 0.00 | 0.00 | 0.00 | 34 | 1002.7 |
| 20260508184554 | 13 | 236 | 3.2 | 17.7 | 0.00 | 0.00 | 0.00 | 36 | 1003.0 |
| 20260508183055 | 13 | 293 | 4.8 | 19.3 | 0.00 | 0.00 | 0.00 | 36 | 1003.2 |
| 20260508181557 | 13 | 192 | 6.4 | 16.1 | 0.00 | 0.00 | 0.00 | 34 | 1003.3 |
| 20260508180052 | 13 | 290 | 3.2 | 22.5 | 0.00 | 0.00 | 0.00 | 35 | 1003.8 |
| 20260508174610 | 12 | 275 | 4.8 | 19.3 | 0.00 | 0.00 | 0.00 | 34 | 1003.8 |
| 20260508173051 | 12 | 174 | 3.2 | 17.7 | 0.00 | 0.00 | 0.00 | 34 | 1004.0 |
| 20260508171557 | 12 | 232 | 4.8 | 20.9 | 0.00 | 0.00 | 0.00 | 34 | 1004.5 |
| 20260508170054 | 12 | 200 | 6.4 | 22.5 | 0.00 | 0.00 | 0.00 | 36 | 1004.7 |
| 20260508164552 | 13 | 256 | 4.8 | 12.9 | 0.00 | 0.00 | 0.00 | 34 | 1004.8 |
| 20260508163051 | 12 | 261 | 8.0 | 20.9 | 0.00 | 0.00 | 0.00 | 33 | 1005.1 |
| 20260508161551 | 13 | 317 | 3.2 | 16.1 | 0.00 | 0.00 | 0.00 | 35 | 1005.2 |
| 20260508160053 | 12 | 246 | 3.2 | 19.3 | 0.00 | 0.00 | 0.00 | 38 | 1005.4 |
| 20260508154551 | 12 | 231 | 4.8 | 11.3 | 0.00 | 0.00 | 0.00 | 34 | 1005.6 |
| 20260508153047 | 11 | 244 | 3.2 | 16.1 | 0.00 | 0.00 | 0.00 | 37 | 1005.9 |
| 20260508151557 | 11 | 293 | 3.2 | 14.5 | 0.00 | 0.00 | 0.00 | 37 | 1006.1 |
| 20260508150050 | 11 | 15 | 3.2 | 16.1 | 0.00 | 0.00 | 0.00 | 39 | 1006.0 |
| 20260508144552 | 10 | 283 | 3.2 | 12.9 | 0.00 | 0.00 | 0.00 | 42 | 1006.2 |
| 20260508143101 | 9 | 261 | 3.2 | 9.7 | 0.00 | 0.00 | 0.00 | 47 | 1006.3 |
| 20260508141556 | 8 | 164 | 0.0 | 9.7 | 0.00 | 0.00 | 0.00 | 50 | 1006.5 |
| 20260508140059 | 7 | 288 | 3.2 | 12.9 | 0.00 | 0.00 | 0.00 | 54 | 1006.7 |
| 20260508134554 | 6 | 175 | 1.6 | 9.7 | 0.00 | 0.00 | 0.00 | 59 | 1006.7 |
| 20260508133057 | 5 | 230 | 1.6 | 8.0 | 0.00 | 0.00 | 0.00 | 61 | 1006.9 |
| 20260508131557 | 3 | 242 | 0.0 | 4.8 | 0.00 | 0.00 | 0.00 | 67 | 1006.9 |
| 20260508130103 | 2 | 32 | 0.0 | 3.2 | 0.00 | 0.00 | 0.00 | 69 | 1007.1 |
| 20260508124556 | 1 | 0 | 0.0 | 3.2 | 0.00 | 0.00 | 0.00 | 73 | 1007.0 |
| 20260508123057 | 0 | 0 | 0.0 | 0.0 | 0.00 | 0.00 | 0.00 | 78 | 1007.0 |
| 20260508121557 | -1 | 0 | 0.0 | 0.0 | 0.00 | 0.00 | 0.00 | 85 | 1007.0 |
| 20260508120054 | -3 | 0 | 0.0 | 0.0 | 0.00 | 0.00 | 0.00 | 89 | 1006.9 |
| 20260508114552 | -4 | 0 | 0.0 | 0.0 | 0.00 | 0.00 | 0.00 | 90 | 1007.0 |
| 20260508113050 | -5 | 0 | 0.0 | 0.0 | 0.00 | 0.00 | 0.00 | 91 | 1006.9 |
| 20260508111552 | -5 | 0 | 0.0 | 0.0 | 0.00 | 0.00 | 0.00 | 90 | 1006.9 |
| 20260508110055 | -5 | 0 | 0.0 | 0.0 | 0.00 | 0.00 | 0.00 | 90 | 1007.1 |
| 20260508104600 | -5 | 0 | 0.0 | 0.0 | 0.00 | 0.00 | 0.00 | 89 | 1006.9 |
| 20260508103052 | -5 | 0 | 0.0 | 0.0 | 0.00 | 0.00 | 0.00 | 89 | 1007.0 |
| 20260508101554 | -5 | 0 | 0.0 | 0.0 | 0.00 | 0.00 | 0.00 | 89 | 1007.1 |
| 20260508100051 | -5 | 0 | 0.0 | 0.0 | 0.00 | 0.00 | 0.00 | 89 | 1007.1 |
| 20260508094600 | -5 | 0 | 0.0 | 0.0 | 0.00 | 0.00 | 0.00 | 89 | 1007.0 |
| 20260508093100 | -4 | 0 | 0.0 | 0.0 | 0.00 | 0.00 | 0.00 | 88 | 1007.2 |
| 20260508091604 | -4 | 0 | 0.0 | 0.0 | 0.00 | 0.00 | 0.00 | 88 | 1007.1 |
| 20260508090111 | -4 | 0 | 0.0 | 0.0 | 0.00 | 0.00 | 0.00 | 88 | 1007.0 |
| 20260508084557 | -4 | 0 | 0.0 | 0.0 | 0.00 | 0.00 | 0.00 | 87 | 1007.0 |
| 20260508083055 | -4 | 0 | 0.0 | 0.0 | 0.00 | 0.00 | 0.00 | 87 | 1007.1 |
| 20260508081610 | -3 | 0 | 0.0 | 0.0 | 0.00 | 0.00 | 0.00 | 87 | 1007.2 |
| 20260508080051 | -3 | 0 | 0.0 | 0.0 | 0.00 | 0.00 | 0.00 | 86 | 1007.4 |
| 20260508074551 | -3 | 0 | 0.0 | 0.0 | 0.00 | 0.00 | 0.00 | 86 | 1007.3 |
| 20260508073100 | -3 | 0 | 0.0 | 0.0 | 0.00 | 0.00 | 0.00 | 85 | 1007.6 |
| 20260508071613 | -3 | 0 | 0.0 | 0.0 | 0.00 | 0.00 | 0.00 | 84 | 1007.6 |
| 20260508070058 | -3 | 0 | 0.0 | 0.0 | 0.00 | 0.00 | 0.00 | 84 | 1007.8 |